カタログに戻る

COSMOS 1275 DEB

運用中PO
NORAD 13466·DEBRIS·🇷🇺 Russia

打ち上げ Jun 4, 1981 から Plesetsk Cosmodrome

Loading…

次のパス (今後24時間)

TLE

最新Source: Space-Track

元期: Sep 14, 2026, 10:24 UTC

1 13466U 81053FN  26257.43346162  .00001486  00000-0  18205-2 0  9995
2 13466  83.0701 122.4434 0143345 351.5231 123.6848 13.60810602193104

AllMySatでCOSMOS 1275 DEBをリアルタイム追跡

Download on the App Store